Regional Weather Roundup
Issued by NWS

Home | Current Version | Previous Version | Graphics & Text | Print | Product List | Glossary On
Versions: 1 2 3 4 5 6 7 8 9 10 11 12 13 14 15 16 17 18 19 20 21 22 23 24 25 26 27 28 29 30 31 32 33 34 35 36 37 38 39 40 41 42 43 44 45 46 47 48 49 50
000
ASUS43 KOAX 202302
RWRNE

WEATHER ROUNDUP FOR NEBRASKA
NATIONAL WEATHER SERVICE OMAHA NE
600 PM CDT FRI OCT 20 2017

NOTES: SATELLITE DATA IS BEING USED TO AUGMENT CLOUD COVER ABOVE
       12000 FEET.
       "FAIR" INDICATES FEW OR NO CLOUDS BELOW 12,000 FEET WITH NO
       SIGNIFICANT WEATHER AND/OR OBSTRUCTIONS TO VISIBILITY.


NEZ001>004-019>022-054>056-210000-
NEBRASKA PANHANDLE

CITY           SKY/WX    TMP DP  RH WIND       PRES   REMARKS
SCOTTSBLUFF    MOSUNNY   77  32  19 W5        29.45F
ALLIANCE       CLEAR     70  45  40 SE14      29.48F
CHADRON        CLOUDY    80  34  19 S13       29.38F
GORDON         FAIR      74  45  34 S13       29.44F
KIMBALL        SUNNY     75  30  19 S12G21    29.53F
SIDNEY         SUNNY     74  39  28 S14       29.53F
$$

NEZ057>060-069>072-079>082-210000-
SOUTHWEST NEBRASKA

CITY           SKY/WX    TMP DP  RH WIND       PRES   REMARKS
NORTH PLATTE   PTCLDY    75  52  44 S12       29.49F
IMPERIAL       CLEAR     79  40  24 S17G23    29.50F
LEXINGTON      CLEAR     75  53  45 S31G39    29.54S
MCCOOK         CLEAR     76  51  41 S29G43    29.51F
OGALLALA       CLEAR     75  47  36 S8        29.50F
$$

NEZ005>010-023>029-035>040-094-210000-
NORTH CENTRAL NEBRASKA

CITY           SKY/WX    TMP DP  RH WIND       PRES   REMARKS
VALENTINE      CLEAR     74  51  44 S18G31    29.46F
AINSWORTH      PTCLDY    71  54  54 S15G23    29.50F
BROKEN BOW     PTCLDY    74  54  49 S30G40    29.52F
O`NEILL        MOCLDY    72  56  57 S20G26    29.53F
ORD            PTCLDY    73  55  53 S16G32    29.53F
THEDFORD       MOCLDY    74  50  42 S21G29    29.50F
$$

NEZ041-046>049-061>064-073>077-083>087-210000-
SOUTH CENTRAL NEBRASKA

CITY           SKY/WX    TMP DP  RH WIND       PRES   REMARKS
GRAND ISLAND   CLEAR     73  59  61 S25G39    29.60F
AURORA         CLEAR     73  58  57 S20G30    29.62F
HASTINGS       CLOUDY    73  56  54 S21G39    29.62F
HEBRON         MOCLDY    76  58  52 S22G33    29.68F
HOLDREGE       CLEAR     74  57  56 S21G38    29.57F
KEARNEY        CLEAR     73  57  57 S29G40    29.58F
YORK           PTCLDY    73  59  60 S23G32    29.64F
$$

NEZ011>018-030>034-042>045-210000-
NORTHEAST NEBRASKA

CITY           SKY/WX    TMP DP  RH WIND       PRES   REMARKS
NORFOLK        CLOUDY    73  58  59 S29G43    29.58F
ALBION         PTCLDY    74  57  56 S25G32    29.59F
BLAIR          CLOUDY    74  59  58 S25G33    29.71F
COLUMBUS       MOCLDY    74  59  59 S25G32    29.63F
FREMONT        CLOUDY    74  58  56 SE17G30   29.68F
TEKAMAH        CLOUDY    75  57  53 S26G37    29.69S
WAYNE          PTCLDY    74  55  51 S21G38    29.61F
$$

NEZ050>053-065>068-078-088>093-210000-
SOUTHEAST NEBRASKA

CITY           SKY/WX    TMP DP  RH WIND       PRES   REMARKS
LINCOLN        MOCLDY    75  59  57 S25G35    29.68F
OMAHA EPPLEY   CLOUDY    74  58  57 S22G30    29.72F
BEATRICE       PTCLDY    76  60  57 S18G24    29.71F
FALLS CITY     CLEAR     74  57  55 S26G35    29.79S
NEBRASKA CITY  CLOUDY    74  60  61 S24G33    29.76F
PLATTSMOUTH    PTCLDY    74  59  59 S17G26    29.74F
$$

NEZ044-045-051>053-067-210000-
OMAHA AREA

CITY           SKY/WX    TMP DP  RH WIND       PRES   REMARKS
OMAHA EPPLEY   CLOUDY    74  58  57 S22G30    29.72F
BLAIR          CLOUDY    74  59  58 S25G33    29.71F
FREMONT        CLOUDY    74  58  56 SE17G30   29.68F
MILLARD        CLOUDY    75  60  59 S17G24    29.71F
OFFUTT AFB     CLOUDY    73  58  59 SE18      29.72F
PLATTSMOUTH    PTCLDY    74  59  59 S17G26    29.74F
WAHOO          FAIR      75  57  53 S24G31    29.68F
$$



USA.gov is the U.S. government's official web portal to all federal, state and local government web resources and services.